SCP
0 0 0 0 0 0 -0 0 0 0 0 0 0 0 0 0 0 0 0 0 0 0 0 0 0 0 0 0 0 0 0 0
0 0 -0 0 0 0 0 0 0 0 0 0 0 0 0 0 0 0 0 0 0 0 0 0 0 0 0 0 0 0 0 0
0 0 0 0 0 0 0 0 0 0 0 0 0 0 0 0 0 0 0 0 0 0 0 0 0 0 0 0 0 0 0 0
0 -0 0 -0 0 0 -0 0 0 0 0 0 0 0 0 0 0 0 0 0 0 0 0 0 0 0 0 0 0 0 0 0
0 -0 0 0 -0 0 -0 0 0 0 0 0 0 0 0 0 0 0 0 0 0 0 0 0 0 0 0 0 0 0 0 0
0 0 0 0 0 0 0 0 0 0 0 0 0 0 0 0 0 0 0 0 0 0 0 0 0 0 0 0 0 0 0 0
0 0 0 0 0 0 0 0 0 0 0 0 0 0 0 0 0 0 0 0 0 0 0 0 0 0 0 0 0 0 0 0
0 0 0 0 0 0 0 0 0 0 0 0 0 0 0 0 0 0 0 0 0 0 0 0 0 0 0 0 0 0 0 0
0 0 0 0 0 0 0 0 0 0 0 0 0 0 0 0 0 0 0 0 0 0 0 0 0 0 0 0 0 0 0 0
0 0 0 0 0 0 0 0 0 0 0 0 0 0 0 0 0 0 0 0 0 0 0 0 0 -0 0 0 0 0 0 0
0 0 0 0 0 0 0 0 0 0 0 0 0 0 0 0 0 0 0 0 0 0 0 0 0 0 -0 0 0 0 0 0
0 0 0 0 0 0 0 0 0 0 0 0 0 0 0 0 0 0 0 0 0 0 0 0 0 0 0 0 0 0 0 0
0 0 0 0 0 0 0 0 0 0 0 0 0 0 0 0 0 0 0 0 0 0 0 0 0 0 0 0 0 0 0 0
0 0 0 0 0 0 0 0 0 0 0 0 0 0 0 0 0 0 0 0 0 0 0 0 0 0 0 0 0 0 0 0
0 0 0 0 0 0 0 0 0 0 0 0 0 0 0 0 0 0 0 0 0 0 0 0 0 0 0 -0 0 0 0 0
0 0 0 0 0 0 0 0 0 0 0 0 0 0 0 0 0 0 0 0 0 0 0 0 0 0 -0 -0 0 0 0 0
0 0 0 0 0 0 0 0 0 0 0 0 0 0 0 0 0 0 0 0 0 0 0 0 0 -0 -0 -0 0 0 0 0
0 0 0 0 0 0 0 0 0 0 0 0 0 0 0 0 0 0 0 0 0 0 0 0 0 0 0 0 0 0 0 0
0 0 0 0 0 0 0 0 0 0 0 0 0 0 0 0 0 0 0 0 0 0 0 0 0 0 0 0 0 0 0 0
0 0 0 0 0 0 0 0 0 0 0 0 0 0 0 0 0 0 0 0 0 0 0 0 0 0 0 0 0 0 0 0
Wind_Speed_500mb
41 46 26 36 33 33 31 23 15 15 19 16 19 14 16 25 19 17 17 19 22 21 20 27 34 36 37 39 40 34 30 42
59 47 49 43 43 32 28 22 19 19 14 14 10 12 22 16 15 19 23 25 26 25 25 27 33 40 42 44 43 44 42 42
39 34 30 14 13 17 22 23 20 20 17 11 14 8 13 19 24 28 33 37 38 36 36 36 38 41 44 46 46 47 50 54
37 19 19 11 10 19 17 24 19 11 15 3 6 13 17 23 24 27 29 33 36 36 44 49 50 50 50 49 47 50 52 56
20 3 16 6 4 10 11 4 6 9 9 8 15 12 14 19 27 30 32 34 37 43 48 46 47 49 50 54 50 50 52 55
21 4 16 11 15 16 12 14 13 12 17 20 17 21 22 24 23 30 36 41 43 43 43 42 43 43 46 44 43 44 47 49
18 18 34 37 32 23 20 16 14 17 17 15 19 26 33 37 41 43 42 42 42 40 45 49 49 49 50 49 45 45 42 37
53 46 36 29 20 19 21 23 22 18 17 20 24 30 34 30 31 38 41 41 38 42 42 37 36 36 41 41 40 37 43 40
30 27 23 15 19 23 22 23 21 19 21 26 28 29 28 29 33 38 40 35 30 29 28 35 39 41 40 40 33 29 31 40
23 21 18 15 18 16 12 11 12 17 24 26 25 23 27 33 36 35 25 20 16 15 15 17 39 49 51 52 53 50 35 36
13 14 14 8 7 6 9 13 18 22 27 25 20 23 30 32 25 20 24 29 32 33 33 40 51 46 53 49 49 50 49 48
16 9 4 2 7 11 15 21 25 28 28 23 21 29 33 18 20 23 31 31 30 36 40 39 37 36 46 54 54 53 47 45
23 15 11 6 5 14 21 26 29 31 29 24 21 28 22 25 24 21 30 29 28 35 36 31 29 33 44 46 56 53 47 47
21 11 8 2 6 12 21 28 32 33 30 26 25 22 29 30 33 25 28 26 27 32 24 30 30 35 37 40 60 42 45 34
13 9 3 4 2 11 19 23 20 24 29 23 32 22 26 34 25 37 33 26 27 30 32 34 38 44 27 36 58 44 40 38
4 14 22 25 22 22 20 22 32 19 26 25 29 39 34 23 33 29 37 33 33 27 40 28 42 24 16 37 38 29 27 33
22 23 20 19 16 21 26 25 28 19 26 27 32 30 30 37 33 37 31 31 28 37 45 29 42 19 30 39 21 27 30 35
13 21 23 15 15 18 20 27 27 29 31 21 34 31 33 39 42 38 38 32 36 42 33 38 34 36 35 28 19 19 27 35
20 18 23 26 28 26 21 13 24 41 31 30 39 31 40 35 45 39 34 41 38 35 33 29 35 38 39 11 21 25 30 34
16 21 25 24 15 20 26 37 43 36 36 36 37 40 41 44 46 38 37 34 31 26 31 33 30 31 24 27 16 25 25 23
Wind_Direction_500mb
141 143 151 167 181 156 161 166 158 141 178 205 196 216 278 317 324 335 323 305 294 296 291 289 294 301 301 307 312 311 299 294
141 143 125 147 181 164 164 147 157 171 192 185 215 283 306 305 324 330 331 331 325 318 305 295 296 299 300 301 307 302 296 299
140 143 154 135 175 180 163 162 181 192 197 238 282 314 331 324 321 319 323 320 322 319 313 308 304 300 299 297 299 303 303 305
145 166 151 99 230 184 264 190 179 217 290 331 333 315 302 303 302 304 314 319 309 304 305 306 301 296 297 292 288 291 296 302
210 167 172 319 103 162 174 165 51 49 14 318 275 253 273 257 284 283 285 287 289 291 293 301 300 298 294 291 292 291 290 298
212 126 128 150 138 156 150 170 181 196 213 205 207 233 252 260 271 278 284 290 298 304 303 304 306 301 294 290 284 283 287 290
172 158 153 161 167 168 180 186 198 205 229 252 262 262 269 288 292 290 296 302 303 303 308 305 304 301 298 296 293 288 284 285
157 165 174 185 193 215 227 229 239 253 274 290 293 296 300 313 304 300 307 310 314 311 312 305 305 305 303 302 299 293 279 267
176 186 198 207 235 244 238 243 255 274 281 287 295 301 302 294 294 303 312 322 322 327 342 338 322 316 318 318 314 307 283 260
198 200 207 199 214 232 240 269 296 304 301 305 307 303 298 302 312 319 335 339 352 329 313 336 345 325 321 328 321 319 306 296
195 201 188 192 199 253 296 309 322 320 319 327 324 312 308 319 331 353 331 323 321 328 325 321 325 328 326 334 337 337 325 307
133 141 134 53 325 333 333 328 335 336 339 339 334 319 328 345 359 351 338 338 333 330 334 336 341 346 348 349 352 347 340 332
160 140 85 84 349 333 327 329 337 339 338 333 325 336 356 344 338 335 341 330 332 333 333 333 333 339 343 340 348 346 342 339
145 136 166 172 340 324 313 319 330 338 340 349 2 4 351 331 328 333 332 331 339 334 344 344 338 326 326 332 349 340 341 331
128 119 174 268 278 303 306 310 333 340 334 355 351 346 325 324 333 329 326 342 334 322 325 322 325 317 321 348 352 342 336 353
252 219 239 259 280 299 294 302 325 344 345 340 317 321 328 330 328 318 328 333 333 336 337 321 328 316 343 347 348 337 352 8
291 301 309 307 271 264 289 305 320 324 338 331 321 329 329 324 321 326 325 324 323 324 325 326 331 328 340 347 335 347 342 340
332 336 330 348 339 339 319 286 297 308 333 321 316 313 318 329 329 328 319 317 316 319 322 327 331 332 333 323 308 331 325 335
310 326 331 322 313 302 288 262 288 306 316 306 310 315 316 310 314 321 322 313 312 312 320 322 315 321 328 280 318 303 318 329
327 320 316 308 274 291 300 313 312 297 298 306 311 312 314 313 311 313 317 315 310 316 313 313 317 314 338 333 309 298 307 320
Wind_Speed_850mb
41 46 26 36 33 33 31 23 15 15 19 16 19 14 16 25 19 17 17 19 22 21 20 27 34 36 37 39 40 34 30 42
59 47 49 43 43 32 28 22 19 19 14 14 10 12 22 16 15 19 23 25 26 25 25 27 33 40 42 44 43 44 42 42
39 34 30 14 13 17 22 23 20 20 17 11 14 8 13 19 24 28 33 37 38 36 36 36 38 41 44 46 46 47 50 54
37 19 19 11 10 19 17 24 19 11 15 3 6 13 17 23 24 27 29 33 36 36 44 49 50 50 50 49 47 50 52 56
20 3 16 6 4 10 11 4 6 9 9 8 15 12 14 19 27 30 32 34 37 43 48 46 47 49 50 54 50 50 52 55
21 4 16 11 15 16 12 14 13 12 17 20 17 21 22 24 23 30 36 41 43 43 43 42 43 43 46 44 43 44 47 49
18 18 34 37 32 23 20 16 14 17 17 15 19 26 33 37 41 43 42 42 42 40 45 49 49 49 50 49 45 45 42 37
53 46 36 29 20 19 21 23 22 18 17 20 24 30 34 30 31 38 41 41 38 42 42 37 36 36 41 41 40 37 43 40
30 27 23 15 19 23 22 23 21 19 21 26 28 29 28 29 33 38 40 35 30 29 28 35 39 41 40 40 33 29 31 40
23 21 18 15 18 16 12 11 12 17 24 26 25 23 27 33 36 35 25 20 16 15 15 17 39 49 51 52 53 50 35 36
13 14 14 8 7 6 9 13 18 22 27 25 20 23 30 32 25 20 24 29 32 33 33 40 51 46 53 49 49 50 49 48
16 9 4 2 7 11 15 21 25 28 28 23 21 29 33 18 20 23 31 31 30 36 40 39 37 36 46 54 54 53 47 45
23 15 11 6 5 14 21 26 29 31 29 24 21 28 22 25 24 21 30 29 28 35 36 31 29 33 44 46 56 53 47 47
21 11 8 2 6 12 21 28 32 33 30 26 25 22 29 30 33 25 28 26 27 32 24 30 30 35 37 40 60 42 45 34
13 9 3 4 2 11 19 23 20 24 29 23 32 22 26 34 25 37 33 26 27 30 32 34 38 44 27 36 58 44 40 38
4 14 22 25 22 22 20 22 32 19 26 25 29 39 34 23 33 29 37 33 33 27 40 28 42 24 16 37 38 29 27 33
22 23 20 19 16 21 26 25 28 19 26 27 32 30 30 37 33 37 31 31 28 37 45 29 42 19 30 39 21 27 30 35
13 21 23 15 15 18 20 27 27 29 31 21 34 31 33 39 42 38 38 32 36 42 33 38 34 36 35 28 19 19 27 35
20 18 23 26 28 26 21 13 24 41 31 30 39 31 40 35 45 39 34 41 38 35 33 29 35 38 39 11 21 25 30 34
16 21 25 24 15 20 26 37 43 36 36 36 37 40 41 44 46 38 37 34 31 26 31 33 30 31 24 27 16 25 25 23
Wind_Direction_850mb
141 143 151 167 181 156 161 166 158 141 178 205 196 216 278 317 324 335 323 305 294 296 291 289 294 301 301 307 312 311 299 294
141 143 125 147 181 164 164 147 157 171 192 185 215 283 306 305 324 330 331 331 325 318 305 295 296 299 300 301 307 302 296 299
140 143 154 135 175 180 163 162 181 192 197 238 282 314 331 324 321 319 323 320 322 319 313 308 304 300 299 297 299 303 303 305
145 166 151 99 230 184 264 190 179 217 290 331 333 315 302 303 302 304 314 319 309 304 305 306 301 296 297 292 288 291 296 302
210 167 172 319 103 162 174 165 51 49 14 318 275 253 273 257 284 283 285 287 289 291 293 301 300 298 294 291 292 291 290 298
212 126 128 150 138 156 150 170 181 196 213 205 207 233 252 260 271 278 284 290 298 304 303 304 306 301 294 290 284 283 287 290
172 158 153 161 167 168 180 186 198 205 229 252 262 262 269 288 292 290 296 302 303 303 308 305 304 301 298 296 293 288 284 285
157 165 174 185 193 215 227 229 239 253 274 290 293 296 300 313 304 300 307 310 314 311 312 305 305 305 303 302 299 293 279 267
176 186 198 207 235 244 238 243 255 274 281 287 295 301 302 294 294 303 312 322 322 327 342 338 322 316 318 318 314 307 283 260
198 200 207 199 214 232 240 269 296 304 301 305 307 303 298 302 312 319 335 339 352 329 313 336 345 325 321 328 321 319 306 296
195 201 188 192 199 253 296 309 322 320 319 327 324 312 308 319 331 353 331 323 321 328 325 321 325 328 326 334 337 337 325 307
133 141 134 53 325 333 333 328 335 336 339 339 334 319 328 345 359 351 338 338 333 330 334 336 341 346 348 349 352 347 340 332
160 140 85 84 349 333 327 329 337 339 338 333 325 336 356 344 338 335 341 330 332 333 333 333 333 339 343 340 348 346 342 339
145 136 166 172 340 324 313 319 330 338 340 349 2 4 351 331 328 333 332 331 339 334 344 344 338 326 326 332 349 340 341 331
128 119 174 268 278 303 306 310 333 340 334 355 351 346 325 324 333 329 326 342 334 322 325 322 325 317 321 348 352 342 336 353
252 219 239 259 280 299 294 302 325 344 345 340 317 321 328 330 328 318 328 333 333 336 337 321 328 316 343 347 348 337 352 8
291 301 309 307 271 264 289 305 320 324 338 331 321 329 329 324 321 326 325 324 323 324 325 326 331 328 340 347 335 347 342 340
332 336 330 348 339 339 319 286 297 308 333 321 316 313 318 329 329 328 319 317 316 319 322 327 331 332 333 323 308 331 325 335
310 326 331 322 313 302 288 262 288 306 316 306 310 315 316 310 314 321 322 313 312 312 320 322 315 321 328 280 318 303 318 329
327 320 316 308 274 291 300 313 312 297 298 306 311 312 314 313 311 313 317 315 310 316 313 313 317 314 338 333 309 298 307 320